Powrót do katalogu

STARLINK-35521

AktywnyŁącznośćVLEO
NORAD 65916·PAYLOAD·🇺🇸 United States

Wystrzelony Oct 8, 2025 z Vandenberg Space Force Base

Loading…

Następne Przeloty (najbliższe 24 godziny)

TLE

ŚwieżeSource: CelesTrak SupGP

Epoka: Sep 14, 2026, 23:11 UTC

1 65916C 25225G   26257.96645833 -.00003179  00000+0 -93922-4 0  2576
2 65916  53.1606   3.8626 0001187  84.8693 308.0793 15.34388990    11

Śledź STARLINK-35521 w czasie rzeczywistym z AllMySat

Download on the App Store